Terug naar catalogus

ERS 2 DEB

ActiefSSO
NORAD 35392·DEBRIS·🇪🇺 EU

Gelanceerd Apr 21, 1995 vanaf Guiana Space Centre

Loading…

Volgende Passages (komende 24 uur)

TLE

VersSource: Space-Track

Epoch: Sep 13, 2026, 09:14 UTC

1 35392U 95021F   26256.38492592  .00001800  00000-0  42930-3 0  9992
2 35392  98.3227 227.4433 0002382 159.1247 201.0048 14.54911931982040

Volg ERS 2 DEB in realtime met AllMySat

Download on the App Store